Time,TemperatureF,DewpointF,PressureIn,WindDirection,WindDirectionDegrees,WindSpeedMPH,WindSpeedGustMPH,Humidity,HourlyPrecipIn,Conditions,Clouds,dailyrainin,SolarRadiationWatts/m^2,SoftwareType,DateUTC
2013-05-23 00:00:00,77.3,69.2,29.59,SE,129,6.0,8.0,76,0.00,,SKC,0.00,0.00,VWS V14.01,2013-05-23 05:00:00,
2013-05-23 00:01:00,77.3,69.2,29.59,SE,129,4.0,8.0,76,0.00,,---,0.00,0.00,VWS V14.00,2013-05-23 05:01:00,
2013-05-23 00:06:00,77.2,69.1,29.59,SE,129,5.0,9.0,76,0.00,,---,0.00,0.00,VWS V14.00,2013-05-23 05:06:00,
2013-05-23 00:10:00,77.0,69.2,29.59,SE,129,4.0,9.0,77,0.00,,SKC,0.00,0.00,VWS V14.01,2013-05-23 05:10:00,
2013-05-23 00:11:00,77.1,69.3,29.59,SE,129,4.0,9.0,77,0.00,,---,0.00,0.00,VWS V14.00,2013-05-23 05:11:00,
2013-05-23 00:16:00,76.9,69.2,29.59,SE,129,7.0,8.0,77,0.00,,---,0.00,0.00,VWS V14.00,2013-05-23 05:16:00,
2013-05-23 00:20:00,76.8,69.4,29.59,SE,129,6.0,8.0,78,0.00,,SKC,0.00,0.00,VWS V14.01,2013-05-23 05:20:00,
2013-05-23 00:21:00,76.8,69.4,29.59,SE,129,5.0,8.0,78,0.00,,---,0.00,0.00,VWS V14.00,2013-05-23 05:21:00,
2013-05-23 00:26:00,76.7,69.3,29.59,SE,129,4.0,8.0,78,0.00,,---,0.00,0.00,VWS V14.00,2013-05-23 05:26:00,
2013-05-23 00:30:00,76.7,69.3,29.59,SE,129,5.0,9.0,78,0.00,,SKC,0.00,0.00,VWS V14.01,2013-05-23 05:30:00,
2013-05-23 00:31:00,76.7,69.3,29.59,SE,129,6.0,9.0,78,0.00,,---,0.00,0.00,VWS V14.00,2013-05-23 05:31:00,
2013-05-23 00:36:00,76.6,69.6,29.59,SE,129,6.0,7.0,79,0.00,,---,0.00,0.00,VWS V14.00,2013-05-23 05:36:00,
2013-05-23 00:40:00,76.5,69.5,29.59,SE,129,8.0,8.0,79,0.00,,SKC,0.00,0.00,VWS V14.01,2013-05-23 05:40:00,
2013-05-23 00:41:00,76.5,69.5,29.59,SE,129,2.0,7.0,79,0.00,,---,0.00,0.00,VWS V14.00,2013-05-23 05:41:00,
2013-05-23 00:46:00,76.5,69.9,29.59,SE,129,8.0,11.0,80,0.00,,---,0.00,0.00,VWS V14.00,2013-05-23 05:46:00,
2013-05-23 00:50:00,76.5,69.9,29.59,SE,129,7.0,11.0,80,0.00,,SKC,0.00,0.00,VWS V14.01,2013-05-23 05:50:00,
2013-05-23 00:51:00,76.5,69.9,29.59,SE,129,6.0,11.0,80,0.00,,---,0.00,0.00,VWS V14.00,2013-05-23 05:51:00,
2013-05-23 00:56:00,76.4,69.8,29.59,SE,129,6.0,11.0,80,0.00,,---,0.00,0.00,VWS V14.00,2013-05-23 05:56:00,
2013-05-23 01:00:00,76.3,70.1,29.58,SE,129,6.0,11.0,81,0.00,,SKC,0.00,0.00,VWS V14.01,2013-05-23 06:00:00,
2013-05-23 01:01:00,76.3,70.1,29.58,SE,129,5.0,11.0,81,0.00,,---,0.00,0.00,VWS V14.00,2013-05-23 06:01:00,
2013-05-23 01:06:00,76.3,70.1,29.58,SE,129,5.0,12.0,81,0.00,,---,0.00,0.00,VWS V14.00,2013-05-23 06:06:00,
2013-05-23 01:10:00,76.2,69.9,29.59,SE,129,4.0,12.0,81,0.00,,SKC,0.00,0.00,VWS V14.01,2013-05-23 06:10:00,
2013-05-23 01:11:00,76.2,69.9,29.59,SE,129,5.0,12.0,81,0.00,,---,0.00,0.00,VWS V14.00,2013-05-23 06:11:00,
2013-05-23 01:16:00,76.2,69.9,29.58,SE,129,7.0,13.0,81,0.00,,---,0.00,0.00,VWS V14.00,2013-05-23 06:16:00,
2013-05-23 01:20:00,76.1,69.8,29.58,SE,129,6.0,13.0,81,0.00,,SKC,0.00,0.00,VWS V14.01,2013-05-23 06:20:00,
2013-05-23 01:21:00,76.2,69.9,29.58,SE,129,5.0,13.0,81,0.00,,---,0.00,0.00,VWS V14.00,2013-05-23 06:21:00,
2013-05-23 01:26:00,76.1,69.8,29.58,SE,129,7.0,11.0,81,0.00,,---,0.00,0.00,VWS V14.00,2013-05-23 06:26:00,
2013-05-23 01:30:00,76.0,69.8,29.58,SE,129,7.0,11.0,81,0.00,,SKC,0.00,0.00,VWS V14.01,2013-05-23 06:30:00,
2013-05-23 01:31:00,76.0,69.8,29.58,SE,129,4.0,11.0,81,0.00,,---,0.00,0.00,VWS V14.00,2013-05-23 06:31:00,
2013-05-23 01:36:00,75.9,69.7,29.58,SE,129,6.0,12.0,81,0.00,,---,0.00,0.00,VWS V14.00,2013-05-23 06:36:00,
2013-05-23 01:40:00,75.7,69.8,29.58,SE,129,5.0,12.0,82,0.00,,SKC,0.00,0.00,VWS V14.01,2013-05-23 06:40:00,
2013-05-23 01:41:00,75.8,69.9,29.58,SE,129,5.0,12.0,82,0.00,,---,0.00,0.00,VWS V14.00,2013-05-23 06:41:00,
2013-05-23 01:46:00,75.7,69.8,29.58,SE,129,2.0,9.0,82,0.00,,---,0.00,0.00,VWS V14.00,2013-05-23 06:46:00,
2013-05-23 01:50:00,75.6,69.7,29.58,SE,129,2.0,14.0,82,0.00,,SKC,0.00,0.00,VWS V14.01,2013-05-23 06:50:00,
2013-05-23 01:51:00,75.6,69.7,29.58,SE,129,1.0,14.0,82,0.00,,---,0.00,0.00,VWS V14.00,2013-05-23 06:51:00,
2013-05-23 01:56:00,75.5,69.6,29.58,SE,129,7.0,7.0,82,0.00,,---,0.00,0.00,VWS V14.00,2013-05-23 06:56:00,
2013-05-23 02:00:00,75.4,69.5,29.58,SE,129,4.0,8.0,82,0.00,,SKC,0.00,0.00,VWS V14.01,2013-05-23 07:00:00,
2013-05-23 02:01:00,75.4,69.5,29.58,SE,129,7.0,8.0,82,0.00,,---,0.00,0.00,VWS V14.00,2013-05-23 07:01:00,
2013-05-23 02:06:00,75.3,69.4,29.58,SE,129,5.0,9.0,82,0.00,,---,0.00,0.00,VWS V14.00,2013-05-23 07:06:00,
2013-05-23 02:10:00,75.2,69.3,29.58,SE,129,5.0,9.0,82,0.00,,SKC,0.00,0.00,VWS V14.01,2013-05-23 07:10:00,
2013-05-23 02:11:00,75.2,69.3,29.58,SE,129,4.0,9.0,82,0.00,,---,0.00,0.00,VWS V14.00,2013-05-23 07:11:00,
2013-05-23 02:16:00,75.1,69.6,29.58,SE,129,4.0,8.0,83,0.00,,---,0.00,0.00,VWS V14.00,2013-05-23 07:16:00,
2013-05-23 02:20:00,74.9,69.4,29.57,SE,129,2.0,8.0,83,0.00,,SKC,0.00,0.00,VWS V14.01,2013-05-23 07:20:00,
2013-05-23 02:21:00,75.0,69.5,29.57,SE,129,5.0,8.0,83,0.00,,---,0.00,0.00,VWS V14.00,2013-05-23 07:21:00,
2013-05-23 02:26:00,74.8,69.3,29.57,SE,129,7.0,9.0,83,0.00,,---,0.00,0.00,VWS V14.00,2013-05-23 07:26:00,
2013-05-23 02:30:00,74.6,69.4,29.57,SE,129,4.0,11.0,84,0.00,,SKC,0.00,0.00,VWS V14.01,2013-05-23 07:30:00,
2013-05-23 02:31:00,74.7,69.6,29.57,SE,129,5.0,11.0,84,0.00,,---,0.00,0.00,VWS V14.00,2013-05-23 07:31:00,
2013-05-23 02:36:00,74.5,69.3,29.57,SE,129,7.0,9.0,84,0.00,,---,0.00,0.00,VWS V14.00,2013-05-23 07:36:00,
2013-05-23 02:40:00,74.4,69.2,29.57,SE,129,4.0,11.0,84,0.00,,SKC,0.00,0.00,VWS V14.01,2013-05-23 07:40:00,
2013-05-23 02:41:00,74.4,69.3,29.57,SE,129,8.0,11.0,84,0.00,,---,0.00,0.00,VWS V14.00,2013-05-23 07:41:00,
2013-05-23 02:46:00,74.3,69.2,29.57,SE,129,5.0,11.0,84,0.00,,---,0.00,0.00,VWS V14.00,2013-05-23 07:46:00,
2013-05-23 02:50:00,74.1,69.3,29.57,SE,128,5.0,13.0,85,0.00,,SKC,0.00,0.00,VWS V14.01,2013-05-23 07:50:00,
2013-05-23 02:51:00,74.1,69.0,29.57,SE,129,5.0,13.0,84,0.00,,---,0.00,0.00,VWS V14.00,2013-05-23 07:51:00,
2013-05-23 02:56:00,74.0,69.2,29.57,SE,129,6.0,13.0,85,0.00,,---,0.00,0.00,VWS V14.00,2013-05-23 07:56:00,
2013-05-23 03:00:00,73.9,69.1,29.57,SE,129,9.0,13.0,85,0.00,,SKC,0.00,0.00,VWS V14.01,2013-05-23 08:00:00,
2013-05-23 03:01:00,73.9,69.1,29.57,SE,129,2.0,13.0,85,0.00,,---,0.00,0.00,VWS V14.00,2013-05-23 08:01:00,
2013-05-23 03:06:00,73.8,69.0,29.57,SE,129,6.0,12.0,85,0.00,,---,0.00,0.00,VWS V14.00,2013-05-23 08:06:00,
2013-05-23 03:10:00,73.6,68.8,29.57,SE,129,5.0,12.0,85,0.00,,SKC,0.00,0.00,VWS V14.01,2013-05-23 08:10:00,
2013-05-23 03:11:00,73.6,68.8,29.57,SE,129,7.0,12.0,85,0.00,,---,0.00,0.00,VWS V14.00,2013-05-23 08:11:00,
2013-05-23 03:16:00,73.5,69.1,29.57,SE,129,8.0,12.0,86,0.00,,---,0.00,0.00,VWS V14.00,2013-05-23 08:16:00,
2013-05-23 03:20:00,73.4,69.0,29.57,SE,129,5.0,12.0,86,0.00,,SKC,0.00,0.00,VWS V14.01,2013-05-23 08:20:00,
2013-05-23 03:21:00,73.3,68.9,29.57,SE,129,4.0,12.0,86,0.00,,---,0.00,0.00,VWS V14.00,2013-05-23 08:21:00,
2013-05-23 03:26:00,73.2,68.8,29.57,SE,129,7.0,12.0,86,0.00,,---,0.00,0.00,VWS V14.00,2013-05-23 08:26:00,
2013-05-23 03:30:00,73.1,68.7,29.56,SE,129,6.0,12.0,86,0.00,,SKC,0.00,0.00,VWS V14.01,2013-05-23 08:30:00,
2013-05-23 03:31:00,73.1,68.7,29.56,SE,129,5.0,12.0,86,0.00,,---,0.00,0.00,VWS V14.00,2013-05-23 08:31:00,
2013-05-23 03:36:00,73.0,68.6,29.56,SE,129,6.0,11.0,86,0.00,,---,0.00,0.00,VWS V14.00,2013-05-23 08:36:00,
2013-05-23 03:40:00,72.9,68.5,29.56,SE,129,2.0,11.0,86,0.00,,SKC,0.00,0.00,VWS V14.01,2013-05-23 08:40:00,
2013-05-23 03:41:00,72.9,68.5,29.56,SE,129,2.0,11.0,86,0.00,,---,0.00,0.00,VWS V14.00,2013-05-23 08:41:00,
2013-05-23 03:46:00,72.8,68.4,29.56,SE,129,5.0,6.0,86,0.00,,---,0.00,0.00,VWS V14.00,2013-05-23 08:46:00,
2013-05-23 03:50:00,72.7,68.3,29.56,SE,129,5.0,12.0,86,0.00,,SKC,0.00,0.00,VWS V14.01,2013-05-23 08:50:00,
2013-05-23 03:51:00,72.7,68.3,29.56,SE,129,5.0,12.0,86,0.00,,---,0.00,0.00,VWS V14.00,2013-05-23 08:51:00,
2013-05-23 03:56:00,72.6,68.5,29.56,SE,129,2.0,12.0,87,0.00,,---,0.00,0.00,VWS V14.00,2013-05-23 08:56:00,
2013-05-23 04:00:00,72.6,68.5,29.56,SE,129,4.0,12.0,87,0.00,,SKC,0.00,0.00,VWS V14.01,2013-05-23 09:00:00,
2013-05-23 04:01:00,72.6,68.5,29.56,SE,129,7.0,12.0,87,0.00,,---,0.00,0.00,VWS V14.00,2013-05-23 09:01:00,
2013-05-23 04:06:00,72.5,68.1,29.56,SE,129,0.0,7.0,86,0.00,,---,0.00,0.00,VWS V14.00,2013-05-23 09:06:00,
2013-05-23 04:10:00,72.5,68.1,29.57,SE,129,0.0,7.0,86,0.00,,SKC,0.00,0.00,VWS V14.01,2013-05-23 09:10:00,
2013-05-23 04:11:00,72.5,68.1,29.57,SE,129,2.0,7.0,86,0.00,,---,0.00,0.00,VWS V14.00,2013-05-23 09:11:00,
2013-05-23 04:16:00,72.4,68.3,29.57,SE,129,4.0,4.0,87,0.00,,---,0.00,0.00,VWS V14.00,2013-05-23 09:16:00,
2013-05-23 04:20:00,72.3,68.2,29.57,SE,129,1.0,5.0,87,0.00,,SKC,0.00,0.00,VWS V14.01,2013-05-23 09:20:00,
2013-05-23 04:21:00,72.3,67.9,29.57,SE,129,2.0,5.0,86,0.00,,---,0.00,0.00,VWS V14.00,2013-05-23 09:21:00,
2013-05-23 04:26:00,72.2,68.1,29.56,SE,129,4.0,6.0,87,0.00,,---,0.00,0.00,VWS V14.00,2013-05-23 09:26:00,
2013-05-23 04:30:00,72.1,68.0,29.57,SE,129,0.0,6.0,87,0.00,,SKC,0.00,0.00,VWS V14.01,2013-05-23 09:30:00,
2013-05-23 04:31:00,72.1,68.0,29.57,SE,129,0.0,6.0,87,0.00,,---,0.00,0.00,VWS V14.00,2013-05-23 09:31:00,
2013-05-23 04:36:00,72.0,67.9,29.56,SE,129,4.0,8.0,87,0.00,,---,0.00,0.00,VWS V14.00,2013-05-23 09:36:00,
2013-05-23 04:40:00,71.9,67.8,29.56,SE,129,2.0,8.0,87,0.00,,SKC,0.00,0.00,VWS V14.01,2013-05-23 09:40:00,
2013-05-23 04:41:00,72.0,67.9,29.56,SE,129,2.0,8.0,87,0.00,,---,0.00,0.00,VWS V14.00,2013-05-23 09:41:00,
2013-05-23 04:46:00,71.9,67.8,29.56,SE,129,2.0,6.0,87,0.00,,---,0.00,0.00,VWS V14.00,2013-05-23 09:46:00,
2013-05-23 04:50:00,71.8,67.7,29.56,SE,129,2.0,7.0,87,0.00,,SKC,0.00,0.00,VWS V14.01,2013-05-23 09:50:00,
2013-05-23 04:51:00,71.8,67.7,29.56,SE,129,7.0,7.0,87,0.00,,---,0.00,0.00,VWS V14.00,2013-05-23 09:51:00,
2013-05-23 04:56:00,71.7,68.0,29.56,SE,129,1.0,5.0,88,0.00,,---,0.00,0.00,VWS V14.00,2013-05-23 09:56:00,
2013-05-23 05:00:00,71.7,67.6,29.57,SE,129,4.0,5.0,87,0.00,,SKC,0.00,0.00,VWS V14.01,2013-05-23 10:00:00,
2013-05-23 05:01:00,71.7,67.6,29.57,SE,129,1.0,5.0,87,0.00,,---,0.00,0.00,VWS V14.00,2013-05-23 10:01:00,
2013-05-23 05:06:00,71.6,67.9,29.56,SE,129,2.0,5.0,88,0.00,,---,0.00,0.00,VWS V14.00,2013-05-23 10:06:00,
2013-05-23 05:10:00,71.5,67.8,29.57,SE,129,1.0,8.0,88,0.00,,SKC,0.00,0.00,VWS V14.01,2013-05-23 10:10:00,
2013-05-23 05:11:00,71.5,67.8,29.57,SE,129,2.0,8.0,88,0.00,,---,0.00,0.00,VWS V14.00,2013-05-23 10:11:00,
2013-05-23 05:16:00,71.5,67.8,29.57,SE,129,0.0,6.0,88,0.00,,---,0.00,0.00,VWS V14.00,2013-05-23 10:16:00,
2013-05-23 05:20:00,71.3,67.6,29.57,SE,129,2.0,6.0,88,0.00,,SKC,0.00,0.00,VWS V14.01,2013-05-23 10:20:00,
2013-05-23 05:21:00,71.3,67.6,29.57,SE,129,2.0,6.0,88,0.00,,---,0.00,0.00,VWS V14.00,2013-05-23 10:21:00,
2013-05-23 05:26:00,71.2,67.5,29.57,SE,129,4.0,5.0,88,0.00,,---,0.00,0.00,VWS V14.00,2013-05-23 10:26:00,
2013-05-23 05:30:00,71.1,67.7,29.57,SE,129,2.0,6.0,89,0.00,,SKC,0.00,0.00,VWS V14.01,2013-05-23 10:30:00,
2013-05-23 05:31:00,71.1,67.7,29.57,SE,129,4.0,6.0,89,0.00,,---,0.00,0.00,VWS V14.00,2013-05-23 10:31:00,
2013-05-23 05:36:00,71.0,67.6,29.57,SE,129,0.0,7.0,89,0.00,,---,0.00,0.00,VWS V14.00,2013-05-23 10:36:00,
2013-05-23 05:40:00,70.8,67.4,29.57,SE,129,6.0,7.0,89,0.00,,SKC,0.00,0.00,VWS V14.01,2013-05-23 10:40:00,
2013-05-23 05:41:00,70.9,67.5,29.57,SE,129,5.0,7.0,89,0.00,,---,0.00,0.00,VWS V14.00,2013-05-23 10:41:00,
2013-05-23 05:46:00,70.8,67.7,29.58,SE,129,2.0,7.0,90,0.00,,---,0.00,0.00,VWS V14.00,2013-05-23 10:46:00,
2013-05-23 05:50:00,70.7,67.6,29.58,SE,129,4.0,7.0,90,0.00,,SKC,0.00,0.00,VWS V14.01,2013-05-23 10:50:00,
2013-05-23 05:51:00,70.7,67.6,29.58,SE,129,5.0,7.0,90,0.00,,---,0.00,0.00,VWS V14.00,2013-05-23 10:51:00,
2013-05-23 05:56:00,70.7,67.6,29.58,SE,129,0.0,4.0,90,0.00,,---,0.00,0.00,VWS V14.00,2013-05-23 10:56:00,
2013-05-23 06:00:00,70.7,67.6,29.58,SE,129,5.0,6.0,90,0.00,,SKC,0.00,0.00,VWS V14.01,2013-05-23 11:00:00,
2013-05-23 06:01:00,70.6,67.5,29.58,SE,129,4.0,5.0,90,0.00,,---,0.00,0.00,VWS V14.00,2013-05-23 11:01:00,
2013-05-23 06:06:00,70.6,67.5,29.58,SE,129,7.0,7.0,90,0.00,,---,0.00,0.00,VWS V14.00,2013-05-23 11:06:00,
2013-05-23 06:10:00,70.7,67.6,29.58,SE,129,7.0,12.0,90,0.00,,SKC,0.00,0.00,VWS V14.01,2013-05-23 11:10:00,
2013-05-23 06:11:00,70.7,67.6,29.58,SE,129,2.0,12.0,90,0.00,,---,0.00,0.00,VWS V14.00,2013-05-23 11:11:00,
2013-05-23 06:16:00,70.8,67.7,29.58,SE,126,8.0,17.0,90,0.00,,---,0.00,0.00,VWS V14.00,2013-05-23 11:16:00,
2013-05-23 06:20:00,70.9,67.8,29.58,SE,127,7.0,17.0,90,0.00,,SKC,0.00,0.00,VWS V14.01,2013-05-23 11:20:00,
2013-05-23 06:21:00,70.8,67.7,29.58,SE,126,8.0,17.0,90,0.00,,---,0.00,0.00,VWS V14.00,2013-05-23 11:21:00,
2013-05-23 06:26:00,70.9,67.5,29.59,SE,132,12.0,16.0,89,0.00,,---,0.00,0.00,VWS V14.00,2013-05-23 11:26:00,
2013-05-23 06:30:00,71.0,67.6,29.59,SE,132,8.0,16.0,89,0.00,,SKC,0.00,0.00,VWS V14.01,2013-05-23 11:30:00,
2013-05-23 06:31:00,71.0,67.6,29.59,SE,132,6.0,16.0,89,0.00,,---,0.00,0.00,VWS V14.00,2013-05-23 11:31:00,
2013-05-23 06:36:00,71.0,67.6,29.59,SE,132,4.0,9.0,89,0.00,,---,0.00,0.00,VWS V14.00,2013-05-23 11:36:00,
2013-05-23 06:40:00,71.0,67.6,29.59,SE,132,6.0,9.0,89,0.00,,SKC,0.00,5.00,VWS V14.01,2013-05-23 11:40:00,
2013-05-23 06:41:00,71.0,67.6,29.59,SE,132,5.0,9.0,89,0.00,,---,0.00,5.00,VWS V14.00,2013-05-23 11:41:00,
2013-05-23 06:46:00,71.0,67.6,29.59,SE,132,4.0,12.0,89,0.00,,---,0.00,9.00,VWS V14.00,2013-05-23 11:46:00,
2013-05-23 06:50:00,71.0,67.6,29.59,SE,132,2.0,12.0,89,0.00,,SKC,0.00,14.00,VWS V14.01,2013-05-23 11:50:00,
2013-05-23 06:51:00,71.0,67.6,29.59,SE,132,7.0,12.0,89,0.00,,---,0.00,14.00,VWS V14.00,2013-05-23 11:51:00,
2013-05-23 06:56:00,71.0,67.6,29.59,SE,132,5.0,13.0,89,0.00,,---,0.00,16.00,VWS V14.00,2013-05-23 11:56:00,
2013-05-23 07:00:00,71.0,67.6,29.59,SE,132,4.0,13.0,89,0.00,,SKC,0.00,19.00,VWS V14.01,2013-05-23 12:00:00,
2013-05-23 07:01:00,71.0,67.6,29.59,SE,132,2.0,13.0,89,0.00,,---,0.00,19.00,VWS V14.00,2013-05-23 12:01:00,
2013-05-23 07:06:00,70.9,67.5,29.60,SE,132,1.0,9.0,89,0.00,,---,0.00,19.00,VWS V14.00,2013-05-23 12:06:00,
2013-05-23 07:10:00,71.0,67.6,29.60,SE,132,4.0,9.0,89,0.00,,SKC,0.00,32.00,VWS V14.01,2013-05-23 12:10:00,
2013-05-23 07:11:00,71.0,67.6,29.60,SE,132,2.0,9.0,89,0.00,,---,0.00,30.00,VWS V14.00,2013-05-23 12:11:00,
2013-05-23 07:16:00,71.0,67.6,29.60,SE,132,2.0,7.0,89,0.00,,---,0.00,30.00,VWS V14.00,2013-05-23 12:16:00,
2013-05-23 07:20:00,71.1,67.7,29.60,SE,132,8.0,8.0,89,0.00,,SKC,0.00,40.00,VWS V14.01,2013-05-23 12:20:00,
2013-05-23 07:21:00,71.1,67.7,29.60,SE,132,6.0,8.0,89,0.00,,---,0.00,42.00,VWS V14.00,2013-05-23 12:21:00,
2013-05-23 07:26:00,71.1,67.7,29.60,SE,132,7.0,13.0,89,0.00,,---,0.00,44.00,VWS V14.00,2013-05-23 12:26:00,
2013-05-23 07:30:00,71.2,67.5,29.60,SE,132,4.0,13.0,88,0.00,,SKC,0.00,51.00,VWS V14.01,2013-05-23 12:30:00,
2013-05-23 07:31:00,71.2,67.5,29.60,SE,132,6.0,13.0,88,0.00,,---,0.00,47.00,VWS V14.00,2013-05-23 12:31:00,
2013-05-23 07:36:00,71.2,67.5,29.61,SE,132,4.0,11.0,88,0.00,,---,0.00,51.00,VWS V14.00,2013-05-23 12:36:00,
2013-05-23 07:40:00,71.4,67.7,29.61,SE,132,4.0,11.0,88,0.00,,SKC,0.00,63.00,VWS V14.01,2013-05-23 12:40:00,
2013-05-23 07:41:00,71.3,67.6,29.61,SE,132,6.0,11.0,88,0.00,,---,0.00,63.00,VWS V14.00,2013-05-23 12:41:00,
2013-05-23 07:46:00,71.5,67.8,29.61,SE,132,5.0,12.0,88,0.00,,---,0.00,54.00,VWS V14.00,2013-05-23 12:46:00,
2013-05-23 07:50:00,71.6,67.5,29.62,SE,132,4.0,13.0,87,0.00,,SKC,0.00,54.00,VWS V14.01,2013-05-23 12:50:00,
2013-05-23 07:51:00,71.6,67.5,29.62,SE,132,9.0,13.0,87,0.00,,---,0.00,54.00,VWS V14.00,2013-05-23 12:51:00,
2013-05-23 07:56:00,71.7,67.6,29.62,SE,132,2.0,12.0,87,0.00,,---,0.00,69.00,VWS V14.00,2013-05-23 12:56:00,
2013-05-23 08:00:00,71.9,67.8,29.62,SE,132,6.0,12.0,87,0.00,,SKC,0.00,62.00,VWS V14.01,2013-05-23 13:00:00,
2013-05-23 08:01:00,71.8,67.7,29.62,SE,132,4.0,12.0,87,0.00,,---,0.00,72.00,VWS V14.00,2013-05-23 13:01:00,
2013-05-23 08:06:00,71.9,67.8,29.62,SE,132,9.0,11.0,87,0.00,,---,0.00,67.00,VWS V14.00,2013-05-23 13:06:00,
2013-05-23 08:10:00,72.1,68.0,29.62,SE,132,5.0,12.0,87,0.00,,SKC,0.00,90.00,VWS V14.01,2013-05-23 13:10:00,
2013-05-23 08:11:00,72.1,68.0,29.62,SE,132,7.0,12.0,87,0.00,,---,0.00,79.00,VWS V14.00,2013-05-23 13:11:00,
2013-05-23 08:16:00,72.2,68.1,29.62,SE,132,4.0,13.0,87,0.00,,---,0.00,95.00,VWS V14.00,2013-05-23 13:16:00,
2013-05-23 08:20:00,72.3,67.9,29.63,SE,132,8.0,13.0,86,0.00,,SKC,0.00,77.00,VWS V14.01,2013-05-23 13:20:00,
2013-05-23 08:21:00,72.3,67.9,29.63,SE,132,5.0,13.0,86,0.00,,---,0.00,72.00,VWS V14.00,2013-05-23 13:21:00,
2013-05-23 08:26:00,72.3,67.9,29.63,SE,132,5.0,14.0,86,0.00,,---,0.00,84.00,VWS V14.00,2013-05-23 13:26:00,
2013-05-23 08:30:00,72.4,68.0,29.63,SE,132,5.0,14.0,86,0.00,,SKC,0.00,72.00,VWS V14.01,2013-05-23 13:30:00,
2013-05-23 08:31:00,72.4,68.0,29.63,SE,132,9.0,14.0,86,0.00,,---,0.00,72.00,VWS V14.00,2013-05-23 13:31:00,
2013-05-23 08:36:00,72.5,68.1,29.63,SE,132,6.0,9.0,86,0.00,,---,0.00,67.00,VWS V14.00,2013-05-23 13:36:00,
2013-05-23 08:40:00,72.6,68.2,29.63,SE,132,6.0,9.0,86,0.00,,SKC,0.00,77.00,VWS V14.01,2013-05-23 13:40:00,
2013-05-23 08:41:00,72.5,68.1,29.63,SE,132,4.0,9.0,86,0.00,,---,0.00,81.00,VWS V14.00,2013-05-23 13:41:00,
2013-05-23 08:46:00,72.6,68.2,29.64,SE,132,6.0,8.0,86,0.00,,---,0.00,81.00,VWS V14.00,2013-05-23 13:46:00,
2013-05-23 08:50:00,72.7,68.3,29.64,SE,132,4.0,12.0,86,0.00,,SKC,0.00,88.00,VWS V14.01,2013-05-23 13:50:00,
2013-05-23 08:51:00,72.7,68.3,29.64,SE,132,8.0,12.0,86,0.00,,---,0.00,84.00,VWS V14.00,2013-05-23 13:51:00,
2013-05-23 08:56:00,72.8,68.4,29.64,SE,132,6.0,11.0,86,0.00,,---,0.00,93.00,VWS V14.00,2013-05-23 13:56:00,
2013-05-23 09:00:00,72.8,68.4,29.64,SE,132,2.0,11.0,86,0.00,,SKC,0.00,104.00,VWS V14.01,2013-05-23 14:00:00,
2013-05-23 09:01:00,72.8,68.4,29.64,SE,132,5.0,11.0,86,0.00,,---,0.00,102.00,VWS V14.00,2013-05-23 14:01:00,
2013-05-23 09:06:00,72.9,68.5,29.64,SE,132,9.0,11.0,86,0.00,,---,0.00,81.00,VWS V14.00,2013-05-23 14:06:00,
2013-05-23 09:10:00,73.0,68.6,29.64,SE,132,8.0,11.0,86,0.00,,SKC,0.00,105.00,VWS V14.01,2013-05-23 14:10:00,
2013-05-23 09:11:00,73.0,68.6,29.64,SE,132,5.0,11.0,86,0.00,,---,0.00,111.00,VWS V14.00,2013-05-23 14:11:00,
2013-05-23 09:16:00,73.0,68.6,29.64,SE,132,2.0,9.0,86,0.00,,---,0.00,111.00,VWS V14.00,2013-05-23 14:16:00,
2013-05-23 09:20:00,73.1,68.7,29.65,SE,132,4.0,9.0,86,0.00,,SKC,0.00,91.00,VWS V14.01,2013-05-23 14:20:00,
2013-05-23 09:21:00,73.1,68.7,29.65,SE,132,5.0,9.0,86,0.00,,---,0.00,100.00,VWS V14.00,2013-05-23 14:21:00,
2013-05-23 09:26:00,73.2,68.8,29.64,SE,138,5.0,15.0,86,0.00,,---,0.00,116.00,VWS V14.00,2013-05-23 14:26:00,
2013-05-23 09:30:00,73.3,68.9,29.65,SE,138,4.0,15.0,86,0.00,,SKC,0.00,111.00,VWS V14.01,2013-05-23 14:30:00,
2013-05-23 09:31:00,73.2,68.8,29.65,SE,138,6.0,15.0,86,0.00,,---,0.00,116.00,VWS V14.00,2013-05-23 14:31:00,
2013-05-23 09:36:00,73.3,68.5,29.65,SE,138,4.0,13.0,85,0.00,,---,0.00,107.00,VWS V14.00,2013-05-23 14:36:00,
2013-05-23 09:40:00,73.4,68.6,29.65,SE,139,9.0,13.0,85,0.00,,SKC,0.00,123.00,VWS V14.01,2013-05-23 14:40:00,
2013-05-23 09:41:00,73.4,68.6,29.65,SE,138,7.0,13.0,85,0.00,,---,0.00,123.00,VWS V14.00,2013-05-23 14:41:00,
2013-05-23 09:46:00,73.4,68.6,29.65,SE,142,7.0,13.0,85,0.00,,---,0.00,178.00,VWS V14.00,2013-05-23 14:46:00,
2013-05-23 09:50:00,73.5,68.7,29.64,SE,141,12.0,14.0,85,0.00,,SKC,0.00,244.00,VWS V14.01,2013-05-23 14:50:00,
2013-05-23 09:51:00,73.5,68.7,29.65,SE,141,9.0,14.0,85,0.00,,---,0.00,265.00,VWS V14.00,2013-05-23 14:51:00,
2013-05-23 09:55:00,73.7,68.9,29.65,SE,140,2.0,12.0,85,0.00,,---,0.00,243.00,VWS V14.00,2013-05-23 14:55:00,
2013-05-23 10:00:00,74.0,69.2,29.65,SE,141,6.0,15.0,85,0.00,,---,0.00,308.00,VWS V14.00,2013-05-23 15:00:00,
2013-05-23 10:05:00,74.3,69.2,29.64,SE,142,8.0,12.0,84,0.00,,---,0.00,309.00,VWS V14.00,2013-05-23 15:05:00,
2013-05-23 10:10:00,74.6,69.4,29.65,SE,142,11.0,14.0,84,0.00,,---,0.00,329.00,VWS V14.00,2013-05-23 15:10:00,
2013-05-23 10:15:00,74.8,69.3,29.64,SE,142,7.0,12.0,83,0.00,,---,0.00,316.00,VWS V14.00,2013-05-23 15:15:00,
2013-05-23 10:20:00,75.1,69.6,29.64,SE,144,5.0,15.0,83,0.00,,---,0.00,260.00,VWS V14.00,2013-05-23 15:20:00,
2013-05-23 10:25:00,75.3,69.8,29.64,SE,144,2.0,9.0,83,0.00,,---,0.00,274.00,VWS V14.00,2013-05-23 15:25:00,
2013-05-23 10:30:00,75.5,69.6,29.64,SE,144,2.0,10.0,82,0.00,,---,0.00,195.00,VWS V14.00,2013-05-23 15:30:00,
2013-05-23 10:35:00,75.6,69.7,29.64,SE,144,4.0,8.0,82,0.00,,---,0.00,234.00,VWS V14.00,2013-05-23 15:35:00,
2013-05-23 10:40:00,75.8,69.9,29.64,SE,144,5.0,9.0,82,0.00,,---,0.00,213.00,VWS V14.00,2013-05-23 15:40:00,
2013-05-23 10:45:00,75.8,69.9,29.64,SE,144,4.0,9.0,82,0.00,,---,0.00,250.00,VWS V14.00,2013-05-23 15:45:00,
2013-05-23 10:50:00,76.0,69.8,29.65,SE,144,6.0,9.0,81,0.00,,---,0.00,267.00,VWS V14.00,2013-05-23 15:50:00,
2013-05-23 10:55:00,76.1,69.5,29.65,SE,144,9.0,15.0,80,0.00,,---,0.00,476.00,VWS V14.00,2013-05-23 15:55:00,
2013-05-23 11:00:00,76.4,69.8,29.65,SE,144,2.0,15.0,80,0.00,,---,0.00,392.00,VWS V14.00,2013-05-23 16:00:00,
2013-05-23 11:05:00,76.9,69.9,29.65,SE,144,6.0,12.0,79,0.00,,---,0.00,350.00,VWS V14.00,2013-05-23 16:05:00,
2013-05-23 11:10:00,77.3,69.5,29.65,SE,144,7.0,12.0,77,0.00,,---,0.00,320.00,VWS V14.00,2013-05-23 16:10:00,
2013-05-23 11:15:00,77.4,69.6,29.65,SE,145,4.0,10.0,77,0.00,,---,0.00,462.00,VWS V14.00,2013-05-23 16:15:00,
2013-05-23 11:20:00,77.7,69.9,29.66,SE,145,4.0,12.0,77,0.00,,---,0.00,404.00,VWS V14.00,2013-05-23 16:20:00,
2013-05-23 11:25:00,78.0,69.4,29.65,SE,144,11.0,18.0,75,0.00,,---,0.00,494.00,VWS V14.00,2013-05-23 16:25:00,
2013-05-23 11:30:00,78.1,69.5,29.65,SSE,148,10.0,18.0,75,0.00,,---,0.00,434.00,VWS V14.00,2013-05-23 16:30:00,
2013-05-23 11:35:00,78.0,69.1,29.65,SSE,147,5.0,12.0,74,0.00,,---,0.00,353.00,VWS V14.00,2013-05-23 16:35:00,
2013-05-23 11:40:00,78.1,69.1,29.65,SSE,148,5.0,12.0,74,0.00,,---,0.00,415.00,VWS V14.00,2013-05-23 16:40:00,
2013-05-23 11:45:00,78.2,69.6,29.65,SE,146,6.0,12.0,75,0.00,,---,0.00,939.00,VWS V14.00,2013-05-23 16:45:00,
2013-05-23 11:50:00,78.7,69.7,29.65,SE,146,7.0,12.0,74,0.00,,---,0.00,497.00,VWS V14.00,2013-05-23 16:50:00,
2013-05-23 11:55:00,79.2,69.8,29.66,SE,146,4.0,11.0,73,0.00,,---,0.00,615.00,VWS V14.00,2013-05-23 16:55:00,
2013-05-23 12:00:00,79.6,69.8,29.65,SE,146,7.0,14.0,72,0.00,,---,0.00,431.00,VWS V14.00,2013-05-23 17:00:00,
2013-05-23 12:05:00,79.8,70.0,29.65,SE,143,7.0,14.0,72,0.00,,---,0.00,357.00,VWS V14.00,2013-05-23 17:05:00,
2013-05-23 12:10:00,79.8,70.0,29.66,SE,143,5.0,14.0,72,0.00,,---,0.00,482.00,VWS V14.00,2013-05-23 17:10:00,
2013-05-23 12:15:00,79.9,70.1,29.66,SE,143,5.0,12.0,72,0.00,,---,0.00,410.00,VWS V14.00,2013-05-23 17:15:00,
2013-05-23 12:20:00,80.1,69.9,29.66,SE,143,6.0,12.0,71,0.00,,---,0.00,550.00,VWS V14.00,2013-05-23 17:20:00,
2013-05-23 12:25:00,80.3,70.5,29.66,SE,143,5.0,10.0,72,0.00,,---,0.00,570.00,VWS V14.00,2013-05-23 17:25:00,
2013-05-23 12:30:00,80.6,69.9,29.65,SE,142,7.0,14.0,70,0.00,,---,0.00,489.00,VWS V14.00,2013-05-23 17:30:00,
2013-05-23 12:35:00,80.6,69.9,29.65,SE,138,8.0,14.0,70,0.00,,---,0.00,490.00,VWS V14.00,2013-05-23 17:35:00,
2013-05-23 12:40:00,80.8,70.1,29.65,SE,138,11.0,14.0,70,0.00,,---,0.00,462.00,VWS V14.00,2013-05-23 17:40:00,
2013-05-23 12:45:00,81.1,70.4,29.66,SE,139,7.0,8.0,70,0.00,,---,0.00,497.00,VWS V14.00,2013-05-23 17:45:00,
2013-05-23 12:50:00,81.0,69.9,29.65,SE,142,5.0,15.0,69,0.00,,---,0.00,429.00,VWS V14.00,2013-05-23 17:50:00,
2013-05-23 12:55:00,81.0,69.9,29.65,SE,143,10.0,19.0,69,0.00,,---,0.00,480.00,VWS V14.00,2013-05-23 17:55:00,
2013-05-23 13:00:00,81.4,70.3,29.65,SE,141,6.0,19.0,69,0.00,,---,0.00,1179.00,VWS V14.00,2013-05-23 18:00:00,
2013-05-23 13:05:00,81.6,69.6,29.65,SE,141,2.0,12.0,67,0.00,,---,0.00,410.00,VWS V14.00,2013-05-23 18:05:00,
2013-05-23 13:10:00,81.6,70.0,29.65,SE,142,9.0,14.0,68,0.00,,---,0.00,603.00,VWS V14.00,2013-05-23 18:10:00,
2013-05-23 13:15:00,81.6,69.6,29.65,SE,140,5.0,12.0,67,0.00,,---,0.00,480.00,VWS V14.00,2013-05-23 18:15:00,
2013-05-23 13:20:00,81.6,70.0,29.64,SE,140,9.0,13.0,68,0.00,,---,0.00,373.00,VWS V14.00,2013-05-23 18:20:00,
2013-05-23 13:25:00,81.4,69.8,29.65,SE,138,6.0,12.0,68,0.00,,---,0.00,464.00,VWS V14.00,2013-05-23 18:25:00,
2013-05-23 13:30:00,81.3,70.2,29.65,SE,138,13.0,15.0,69,0.00,,---,0.00,464.00,VWS V14.00,2013-05-23 18:30:00,
2013-05-23 13:35:00,81.1,70.0,29.65,SE,135,7.0,13.0,69,0.00,,---,0.00,436.00,VWS V14.00,2013-05-23 18:35:00,
2013-05-23 13:40:00,81.1,70.4,29.65,SE,137,8.0,13.0,70,0.00,,---,0.00,534.00,VWS V14.00,2013-05-23 18:40:00,
2013-05-23 13:45:00,81.1,70.4,29.65,SE,136,9.0,13.0,70,0.00,,---,0.00,403.00,VWS V14.00,2013-05-23 18:45:00,
2013-05-23 13:50:00,81.1,70.4,29.65,SE,136,9.0,15.0,70,0.00,,---,0.00,489.00,VWS V14.00,2013-05-23 18:50:00,
2013-05-23 13:55:00,81.1,70.4,29.65,SE,134,7.0,16.0,70,0.00,,---,0.00,394.00,VWS V14.00,2013-05-23 18:55:00,
2013-05-23 14:00:00,81.0,70.3,29.65,SE,134,7.0,16.0,70,0.00,,---,0.00,520.00,VWS V14.00,2013-05-23 19:00:00,
2013-05-23 14:05:00,81.0,70.3,29.64,SE,133,12.0,14.0,70,0.00,,---,0.00,603.00,VWS V14.00,2013-05-23 19:05:00,
2013-05-23 14:10:00,81.3,70.2,29.64,SE,132,11.0,15.0,69,0.00,,---,0.00,610.00,VWS V14.00,2013-05-23 19:10:00,
2013-05-23 14:15:00,81.6,70.4,29.64,SE,133,6.0,13.0,69,0.00,,---,0.00,677.00,VWS V14.00,2013-05-23 19:15:00,
2013-05-23 14:20:00,82.0,70.4,29.64,SE,132,9.0,15.0,68,0.00,,---,0.00,805.00,VWS V14.00,2013-05-23 19:20:00,
2013-05-23 14:25:00,82.1,70.1,29.64,SE,131,4.0,16.0,67,0.00,,---,0.00,585.00,VWS V14.00,2013-05-23 19:25:00,
2013-05-23 14:30:00,82.2,70.6,29.64,SE,132,7.0,16.0,68,0.00,,---,0.00,582.00,VWS V14.00,2013-05-23 19:30:00,
2013-05-23 14:35:00,82.3,70.3,29.64,SE,134,6.0,13.0,67,0.00,,---,0.00,461.00,VWS V14.00,2013-05-23 19:35:00,
2013-05-23 14:40:00,82.2,70.6,29.64,SE,132,5.0,15.0,68,0.00,,---,0.00,666.00,VWS V14.00,2013-05-23 19:40:00,
2013-05-23 14:45:00,82.5,70.9,29.64,SE,128,6.0,17.0,68,0.00,,---,0.00,958.00,VWS V14.00,2013-05-23 19:45:00,
2013-05-23 14:50:00,83.0,70.9,29.64,SE,137,10.0,17.0,67,0.00,,---,0.00,640.00,VWS V14.00,2013-05-23 19:50:00,
2013-05-23 14:55:00,83.0,70.5,29.63,SE,139,6.0,17.0,66,0.00,,---,0.00,513.00,VWS V14.00,2013-05-23 19:55:00,
2013-05-23 15:00:00,83.2,70.2,29.63,SE,142,9.0,17.0,65,0.00,,---,0.00,800.00,VWS V14.00,2013-05-23 20:00:00,
2013-05-23 15:05:00,83.2,69.8,29.63,SE,139,10.0,18.0,64,0.00,,---,0.00,455.00,VWS V14.00,2013-05-23 20:05:00,
2013-05-23 15:10:00,83.2,70.2,29.63,SE,140,5.0,18.0,65,0.00,,---,0.00,371.00,VWS V14.00,2013-05-23 20:10:00,
2013-05-23 15:15:00,83.4,69.9,29.63,SE,136,8.0,13.0,64,0.00,,---,0.00,459.00,VWS V14.00,2013-05-23 20:15:00,
2013-05-23 15:20:00,83.7,70.2,29.63,SE,140,5.0,13.0,64,0.00,,---,0.00,459.00,VWS V14.00,2013-05-23 20:20:00,
2013-05-23 15:25:00,84.0,70.1,29.63,SE,138,8.0,15.0,63,0.00,,---,0.00,380.00,VWS V14.00,2013-05-23 20:25:00,
2013-05-23 15:30:00,83.8,69.9,29.63,SE,136,7.0,15.0,63,0.00,,---,0.00,454.00,VWS V14.00,2013-05-23 20:30:00,
2013-05-23 15:35:00,83.8,69.9,29.63,SE,133,14.0,14.0,63,0.00,,---,0.00,343.00,VWS V14.00,2013-05-23 20:35:00,
2013-05-23 15:40:00,83.8,69.9,29.62,SE,130,5.0,20.0,63,0.00,,---,0.00,350.00,VWS V14.00,2013-05-23 20:40:00,
2013-05-23 15:45:00,84.0,70.5,29.62,SE,132,6.0,16.0,64,0.00,,---,0.00,459.00,VWS V14.00,2013-05-23 20:45:00,
2013-05-23 15:50:00,84.1,70.2,29.62,SE,130,7.0,16.0,63,0.00,,---,0.00,285.00,VWS V14.00,2013-05-23 20:50:00,
2013-05-23 15:55:00,84.1,70.2,29.62,SE,132,1.0,16.0,63,0.00,,---,0.00,360.00,VWS V14.00,2013-05-23 20:55:00,
2013-05-23 16:00:00,84.6,70.2,29.61,SE,134,8.0,16.0,62,0.00,,---,0.00,875.00,VWS V14.00,2013-05-23 21:00:00,
2013-05-23 16:05:00,85.1,70.2,29.61,SE,134,7.0,12.0,61,0.00,,---,0.00,290.00,VWS V14.00,2013-05-23 21:05:00,
2013-05-23 16:10:00,85.2,70.7,29.61,SE,132,6.0,13.0,62,0.00,,---,0.00,295.00,VWS V14.00,2013-05-23 21:10:00,
2013-05-23 16:15:00,84.8,69.9,29.60,ESE,121,8.0,15.0,61,0.00,,---,0.00,225.00,VWS V14.00,2013-05-23 21:15:00,
2013-05-23 16:20:00,84.5,70.1,29.61,SE,126,9.0,16.0,62,0.00,,---,0.00,285.00,VWS V14.00,2013-05-23 21:20:00,
2013-05-23 16:25:00,85.0,69.6,29.60,SE,126,9.0,17.0,60,0.00,,---,0.00,796.00,VWS V14.00,2013-05-23 21:25:00,
2013-05-23 16:30:00,85.5,70.0,29.60,SE,131,11.0,17.0,60,0.00,,---,0.00,788.00,VWS V14.00,2013-05-23 21:30:00,
2013-05-23 16:35:00,85.8,70.3,29.59,SE,128,13.0,17.0,60,0.00,,---,0.00,253.00,VWS V14.00,2013-05-23 21:35:00,
2013-05-23 16:40:00,85.8,70.3,29.59,SE,127,8.0,17.0,60,0.00,,---,0.00,740.00,VWS V14.00,2013-05-23 21:40:00,
2013-05-23 16:45:00,85.8,69.8,29.59,ESE,123,9.0,15.0,59,0.00,,---,0.00,271.00,VWS V14.00,2013-05-23 21:45:00,
2013-05-23 16:50:00,85.8,69.8,29.58,SE,130,6.0,15.0,59,0.00,,---,0.00,722.00,VWS V14.00,2013-05-23 21:50:00,
2013-05-23 16:55:00,86.1,70.1,29.58,SE,126,6.0,15.0,59,0.00,,---,0.00,707.00,VWS V14.00,2013-05-23 21:55:00,
2013-05-23 17:00:00,86.2,70.2,29.57,SE,128,8.0,16.0,59,0.00,,---,0.00,193.00,VWS V14.00,2013-05-23 22:00:00,
2013-05-23 17:05:00,86.1,70.1,29.57,SE,128,12.0,17.0,59,0.00,,---,0.00,626.00,VWS V14.00,2013-05-23 22:05:00,
2013-05-23 17:10:00,86.3,70.3,29.56,SE,142,7.0,19.0,59,0.00,,---,0.00,726.00,VWS V14.00,2013-05-23 22:10:00,
2013-05-23 17:15:00,86.3,70.3,29.56,SE,131,8.0,16.0,59,0.00,,---,0.00,172.00,VWS V14.00,2013-05-23 22:15:00,
2013-05-23 17:20:00,86.0,70.0,29.56,SE,130,13.0,17.0,59,0.00,,---,0.00,587.00,VWS V14.00,2013-05-23 22:20:00,
2013-05-23 17:25:00,86.2,70.2,29.55,SE,131,6.0,12.0,59,0.00,,---,0.00,605.00,VWS V14.00,2013-05-23 22:25:00,
2013-05-23 17:30:00,86.6,70.6,29.55,SE,132,9.0,16.0,59,0.00,,---,0.00,603.00,VWS V14.00,2013-05-23 22:30:00,
2013-05-23 17:35:00,86.7,69.7,29.54,SE,130,9.0,15.0,57,0.00,,---,0.00,543.00,VWS V14.00,2013-05-23 22:35:00,
2013-05-23 17:40:00,86.2,69.7,29.55,SE,135,5.0,17.0,58,0.00,,---,0.00,195.00,VWS V14.00,2013-05-23 22:40:00,
2013-05-23 17:45:00,86.4,70.4,29.55,SE,132,13.0,19.0,59,0.00,,---,0.00,538.00,VWS V14.00,2013-05-23 22:45:00,
2013-05-23 17:50:00,86.4,69.9,29.55,SE,126,8.0,22.0,58,0.00,,---,0.00,520.00,VWS V14.00,2013-05-23 22:50:00,
2013-05-23 17:55:00,86.5,70.5,29.54,SE,130,13.0,16.0,59,0.00,,---,0.00,197.00,VWS V14.00,2013-05-23 22:55:00,
2013-05-23 18:00:00,86.4,69.9,29.54,SE,128,8.0,16.0,58,0.00,,---,0.00,461.00,VWS V14.00,2013-05-23 23:00:00,
2013-05-23 18:05:00,86.3,69.8,29.54,SE,130,9.0,22.0,58,0.00,,---,0.00,461.00,VWS V14.00,2013-05-23 23:05:00,
2013-05-23 18:10:00,86.3,69.8,29.53,SE,127,11.0,22.0,58,0.00,,---,0.00,464.00,VWS V14.00,2013-05-23 23:10:00,
2013-05-23 18:15:00,86.6,70.1,29.53,SE,132,12.0,19.0,58,0.00,,---,0.00,501.00,VWS V14.00,2013-05-23 23:15:00,
2013-05-23 18:20:00,86.6,69.6,29.54,SE,131,8.0,19.0,57,0.00,,---,0.00,163.00,VWS V14.00,2013-05-23 23:20:00,
2013-05-23 18:25:00,86.2,69.2,29.54,SE,131,13.0,19.0,57,0.00,,---,0.00,155.00,VWS V14.00,2013-05-23 23:25:00,
2013-05-23 18:30:00,85.7,69.7,29.53,SE,131,8.0,19.0,59,0.00,,---,0.00,172.00,VWS V14.00,2013-05-23 23:30:00,
2013-05-23 18:35:00,85.3,68.9,29.53,SE,128,8.0,14.0,58,0.00,,---,0.00,176.00,VWS V14.00,2013-05-23 23:35:00,
2013-05-23 18:40:00,85.1,69.2,29.53,SE,128,6.0,14.0,59,0.00,,---,0.00,278.00,VWS V14.00,2013-05-23 23:40:00,
2013-05-23 18:45:00,85.2,69.8,29.53,SE,128,6.0,14.0,60,0.00,,---,0.00,387.00,VWS V14.00,2013-05-23 23:45:00,
2013-05-23 18:50:00,85.4,69.0,29.53,ESE,115,7.0,18.0,58,0.00,,---,0.00,223.00,VWS V14.00,2013-05-23 23:50:00,
2013-05-23 18:55:00,85.2,68.8,29.53,ESE,117,5.0,15.0,58,0.00,,---,0.00,167.00,VWS V14.00,2013-05-23 23:55:00,
2013-05-23 19:00:00,85.0,69.1,29.54,ESE,120,8.0,19.0,59,0.00,,---,0.00,146.00,VWS V14.00,2013-05-24 00:00:00,
2013-05-23 19:05:00,84.7,68.8,29.53,ESE,120,11.0,14.0,59,0.00,,---,0.00,111.00,VWS V14.00,2013-05-24 00:05:00,
2013-05-23 19:10:00,84.6,69.2,29.53,ESE,121,7.0,14.0,60,0.00,,---,0.00,97.00,VWS V14.00,2013-05-24 00:10:00,
2013-05-23 19:15:00,84.4,69.0,29.53,ESE,117,20.0,20.0,60,0.00,,---,0.00,77.00,VWS V14.00,2013-05-24 00:15:00,
2013-05-23 19:20:00,84.2,68.8,29.54,ESE,117,5.0,20.0,60,0.00,,---,0.00,67.00,VWS V14.00,2013-05-24 00:20:00,
2013-05-23 19:25:00,84.0,69.1,29.54,ESE,117,8.0,13.0,61,0.00,,---,0.00,69.00,VWS V14.00,2013-05-24 00:25:00,
2013-05-23 19:30:00,83.8,68.9,29.55,ESE,117,5.0,13.0,61,0.00,,---,0.00,62.00,VWS V14.00,2013-05-24 00:30:00,
2013-05-23 19:35:00,83.8,69.4,29.55,ESE,118,12.0,12.0,62,0.00,,---,0.00,56.00,VWS V14.00,2013-05-24 00:35:00,
2013-05-23 19:40:00,83.6,69.2,29.55,ESE,118,6.0,12.0,62,0.00,,---,0.00,62.00,VWS V14.00,2013-05-24 00:40:00,
2013-05-23 19:45:00,83.5,69.1,29.56,ESE,117,9.0,12.0,62,0.00,,---,0.00,54.00,VWS V14.00,2013-05-24 00:45:00,
2013-05-23 19:50:00,83.3,68.9,29.56,ESE,119,7.0,16.0,62,0.00,,---,0.00,47.00,VWS V14.00,2013-05-24 00:50:00,
2013-05-23 19:55:00,83.2,69.3,29.55,ESE,115,13.0,14.0,63,0.00,,---,0.00,39.00,VWS V14.00,2013-05-24 00:55:00,
2013-05-23 20:00:00,83.1,69.2,29.56,ESE,115,5.0,14.0,63,0.00,,---,0.00,30.00,VWS V14.00,2013-05-24 01:00:00,
2013-05-23 20:05:00,82.9,69.0,29.57,ESE,115,5.0,9.0,63,0.00,,---,0.00,21.00,VWS V14.00,2013-05-24 01:05:00,
2013-05-23 20:10:00,82.8,68.9,29.57,ESE,115,5.0,11.0,63,0.00,,---,0.00,12.00,VWS V14.00,2013-05-24 01:10:00,
2013-05-23 20:15:00,82.6,69.2,29.57,ESE,115,6.0,12.0,64,0.00,,---,0.00,7.00,VWS V14.00,2013-05-24 01:15:00,
2013-05-23 20:20:00,82.5,69.1,29.58,ESE,115,5.0,12.0,64,0.00,,---,0.00,0.00,VWS V14.00,2013-05-24 01:20:00,
2013-05-23 20:25:00,82.4,69.0,29.58,ESE,115,5.0,8.0,64,0.00,,---,0.00,0.00,VWS V14.00,2013-05-24 01:25:00,
2013-05-23 20:30:00,82.3,68.9,29.60,ESE,115,4.0,8.0,64,0.00,,---,0.00,0.00,VWS V14.00,2013-05-24 01:30:00,
2013-05-23 20:35:00,82.1,69.2,29.61,ESE,115,8.0,13.0,65,0.00,,---,0.00,0.00,VWS V14.00,2013-05-24 01:35:00,
2013-05-23 20:40:00,82.1,69.2,29.61,ESE,115,2.0,13.0,65,0.00,,---,0.00,0.00,VWS V14.00,2013-05-24 01:40:00,
2013-05-23 20:45:00,81.9,69.4,29.62,ESE,115,2.0,7.0,66,0.00,,---,0.00,0.00,VWS V14.00,2013-05-24 01:45:00,
2013-05-23 20:50:00,81.8,69.3,29.63,ESE,115,4.0,7.0,66,0.00,,---,0.00,0.00,VWS V14.00,2013-05-24 01:50:00,
2013-05-23 20:55:00,81.6,69.6,29.64,ESE,115,4.0,8.0,67,0.00,,---,0.00,0.00,VWS V14.00,2013-05-24 01:55:00,
2013-05-23 21:00:00,81.5,69.5,29.65,ESE,115,4.0,8.0,67,0.00,,---,0.00,0.00,VWS V14.00,2013-05-24 02:00:00,
2013-05-23 21:05:00,81.4,69.4,29.66,ESE,115,2.0,7.0,67,0.00,,---,0.00,0.00,VWS V14.00,2013-05-24 02:05:00,
2013-05-23 21:10:00,81.3,69.3,29.66,ESE,115,6.0,9.0,67,0.00,,---,0.00,0.00,VWS V14.00,2013-05-24 02:10:00,
2013-05-23 21:15:00,81.2,69.6,29.66,ESE,115,6.0,8.0,68,0.00,,---,0.00,0.00,VWS V14.00,2013-05-24 02:15:00,
2013-05-23 21:20:00,81.1,69.6,29.65,ESE,115,5.0,11.0,68,0.00,,---,0.00,0.00,VWS V14.00,2013-05-24 02:20:00,
2013-05-23 21:25:00,80.9,69.4,29.65,ESE,115,8.0,9.0,68,0.00,,---,0.00,0.00,VWS V14.00,2013-05-24 02:25:00,
2013-05-23 21:30:00,80.8,69.7,29.64,ESE,115,6.0,9.0,69,0.00,,---,0.00,0.00,VWS V14.00,2013-05-24 02:30:00,
2013-05-23 21:35:00,80.7,69.6,29.65,ESE,115,8.0,11.0,69,0.00,,---,0.00,0.00,VWS V14.00,2013-05-24 02:35:00,
2013-05-23 21:40:00,80.7,69.6,29.65,ESE,115,5.0,12.0,69,0.00,,---,0.00,0.00,VWS V14.00,2013-05-24 02:40:00,
2013-05-23 21:45:00,80.6,69.5,29.66,ESE,115,4.0,7.0,69,0.00,,---,0.00,0.00,VWS V14.00,2013-05-24 02:45:00,
2013-05-23 21:50:00,80.5,69.8,29.66,ESE,115,2.0,8.0,70,0.00,,---,0.00,0.00,VWS V14.00,2013-05-24 02:50:00,
2013-05-23 21:55:00,80.4,69.7,29.67,ESE,115,4.0,6.0,70,0.00,,---,0.00,0.00,VWS V14.00,2013-05-24 02:55:00,
2013-05-23 22:00:00,80.2,69.5,29.67,ESE,115,4.0,7.0,70,0.00,,---,0.00,0.00,VWS V14.00,2013-05-24 03:00:00,
2013-05-23 22:05:00,80.0,69.8,29.67,ESE,115,4.0,5.0,71,0.00,,---,0.00,0.00,VWS V14.00,2013-05-24 03:05:00,
2013-05-23 22:10:00,79.9,69.7,29.68,ESE,115,4.0,11.0,71,0.00,,---,0.00,0.00,VWS V14.00,2013-05-24 03:10:00,
2013-05-23 22:15:00,79.7,69.9,29.69,ESE,110,5.0,14.0,72,0.00,,---,0.00,0.00,VWS V14.00,2013-05-24 03:15:00,
2013-05-23 22:20:00,79.7,69.9,29.69,ESE,110,2.0,14.0,72,0.00,,---,0.00,0.00,VWS V14.00,2013-05-24 03:20:00,
2013-05-23 22:25:00,79.6,69.8,29.70,ESE,111,6.0,13.0,72,0.00,,---,0.00,0.00,VWS V14.00,2013-05-24 03:25:00,
2013-05-23 22:30:00,79.4,70.0,29.70,ESE,111,5.0,13.0,73,0.00,,---,0.00,0.00,VWS V14.00,2013-05-24 03:30:00,
2013-05-23 22:35:00,79.3,69.9,29.72,ESE,111,9.0,9.0,73,0.00,,---,0.00,0.00,VWS V14.00,2013-05-24 03:35:00,
2013-05-23 22:40:00,79.3,69.9,29.72,ESE,110,7.0,9.0,73,0.00,,---,0.00,0.00,VWS V14.00,2013-05-24 03:40:00,
2013-05-23 22:45:00,79.2,69.8,29.72,ESE,110,6.0,9.0,73,0.00,,---,0.00,0.00,VWS V14.00,2013-05-24 03:45:00,
2013-05-23 22:50:00,79.1,69.7,29.71,ESE,110,6.0,9.0,73,0.00,,---,0.00,0.00,VWS V14.00,2013-05-24 03:50:00,
2013-05-23 22:55:00,79.0,70.0,29.72,ESE,111,2.0,11.0,74,0.00,,---,0.00,0.00,VWS V14.00,2013-05-24 03:55:00,
2013-05-23 23:00:00,79.0,70.0,29.72,ESE,110,9.0,11.0,74,0.00,,---,0.00,0.00,VWS V14.00,2013-05-24 04:00:00,
2013-05-23 23:01:00,79.0,70.0,29.72,ESE,110,9.0,11.0,74,0.00,,---,0.00,0.00,VWS V14.00,2013-05-24 04:01:00,
2013-05-23 23:06:00,78.9,69.9,29.73,ESE,109,6.0,11.0,74,0.00,,---,0.00,0.00,VWS V14.00,2013-05-24 04:06:00,
2013-05-23 23:10:00,78.9,69.9,29.73,ESE,110,6.0,15.0,74,0.00,,SKC,0.00,0.00,VWS V14.01,2013-05-24 04:10:00,
2013-05-23 23:11:00,78.9,69.9,29.73,ESE,110,7.0,15.0,74,0.00,,---,0.00,0.00,VWS V14.00,2013-05-24 04:11:00,
2013-05-23 23:16:00,78.9,69.9,29.73,ESE,110,6.0,9.0,74,0.00,,---,0.00,0.00,VWS V14.00,2013-05-24 04:16:00,
2013-05-23 23:20:00,78.7,70.1,29.74,ESE,108,6.0,15.0,75,0.00,,SKC,0.00,0.00,VWS V14.01,2013-05-24 04:20:00,
2013-05-23 23:21:00,78.8,70.2,29.74,ESE,108,6.0,15.0,75,0.00,,---,0.00,0.00,VWS V14.00,2013-05-24 04:21:00,
2013-05-23 23:26:00,78.6,70.0,29.73,ESE,108,5.0,11.0,75,0.00,,---,0.00,0.00,VWS V14.00,2013-05-24 04:26:00,
2013-05-23 23:30:00,78.4,70.2,29.73,ESE,108,9.0,11.0,76,0.00,,SKC,0.00,0.00,VWS V14.01,2013-05-24 04:30:00,
2013-05-23 23:31:00,78.4,69.8,29.73,ESE,108,6.0,11.0,75,0.00,,---,0.00,0.00,VWS V14.00,2013-05-24 04:31:00,
2013-05-23 23:36:00,78.2,70.0,29.72,ESE,109,13.0,13.0,76,0.00,,---,0.00,0.00,VWS V14.00,2013-05-24 04:36:00,
2013-05-23 23:40:00,78.0,69.8,29.72,ESE,109,5.0,13.0,76,0.00,,SKC,0.00,0.00,VWS V14.01,2013-05-24 04:40:00,
2013-05-23 23:41:00,78.0,69.8,29.72,ESE,109,11.0,13.0,76,0.00,,---,0.00,0.00,VWS V14.00,2013-05-24 04:41:00,
2013-05-23 23:46:00,77.8,70.0,29.72,ESE,109,5.0,11.0,77,0.00,,---,0.00,0.00,VWS V14.00,2013-05-24 04:46:00,
2013-05-23 23:50:00,77.6,69.8,29.71,ESE,109,8.0,12.0,77,0.00,,SKC,0.00,0.00,VWS V14.01,2013-05-24 04:50:00,
2013-05-23 23:51:00,77.7,69.9,29.71,ESE,109,5.0,12.0,77,0.00,,---,0.00,0.00,VWS V14.00,2013-05-24 04:51:00,
2013-05-23 23:56:00,77.5,70.1,29.70,ESE,110,4.0,14.0,78,0.00,,---,0.00,0.00,VWS V14.00,2013-05-24 04:56:00,